Time,TemperatureF,DewpointF,PressureIn,WindDirection,WindDirectionDegrees,WindSpeedMPH,WindSpeedGustMPH,Humidity,HourlyPrecipIn,Conditions,Clouds,dailyrainin,SoftwareType,DateUTC
2013-05-29 00:01:00,56.5,30.5,29.21,SSW,204,10.1,10.1,37,0.00,,---,0.00,VWS V14.01,2013-05-29 07:01:00,
2013-05-29 00:06:00,56.7,30.0,29.21,SSW,210,9.2,9.6,36,0.00,,---,0.00,VWS V14.01,2013-05-29 07:06:00,
2013-05-29 00:11:00,56.7,30.0,29.21,SSW,202,6.9,9.2,36,0.00,,---,0.00,VWS V14.01,2013-05-29 07:11:00,
2013-05-29 00:16:00,56.5,29.9,29.21,SSW,209,9.2,12.1,36,0.00,,---,0.00,VWS V14.01,2013-05-29 07:16:00,
2013-05-29 00:21:00,56.3,31.0,29.18,SSW,208,6.9,10.1,38,0.00,,---,0.00,VWS V14.01,2013-05-29 07:21:00,
2013-05-29 00:26:00,55.9,31.4,29.18,SSW,212,8.3,9.6,39,0.00,,---,0.00,VWS V14.01,2013-05-29 07:26:00,
2013-05-29 00:31:00,55.9,32.0,29.18,SW,216,11.0,11.0,40,0.00,,---,0.00,VWS V14.01,2013-05-29 07:31:00,
2013-05-29 00:36:00,55.8,31.2,29.18,SW,218,9.6,11.6,39,0.00,,---,0.00,VWS V14.01,2013-05-29 07:36:00,
2013-05-29 00:41:00,55.8,31.2,29.18,SW,228,10.5,10.5,39,0.00,,---,0.00,VWS V14.01,2013-05-29 07:41:00,
2013-05-29 00:46:00,55.6,31.0,29.18,SW,215,8.7,12.1,39,0.00,,---,0.00,VWS V14.01,2013-05-29 07:46:00,
2013-05-29 00:51:00,55.6,31.0,29.18,WSW,237,11.0,11.0,39,0.00,,---,0.00,VWS V14.01,2013-05-29 07:51:00,
2013-05-29 00:56:00,55.6,30.4,29.18,SW,220,6.9,9.6,38,0.00,,---,0.00,VWS V14.01,2013-05-29 07:56:00,
2013-05-29 01:01:00,55.9,30.7,29.18,SW,233,8.3,10.1,38,0.00,,---,0.00,VWS V14.01,2013-05-29 08:01:00,
2013-05-29 01:06:00,55.9,30.7,29.18,SW,216,6.3,6.9,38,0.00,,---,0.00,VWS V14.01,2013-05-29 08:06:00,
2013-05-29 01:11:00,55.9,30.1,29.18,SW,218,7.4,7.4,37,0.00,,---,0.00,VWS V14.01,2013-05-29 08:11:00,
2013-05-29 01:16:00,55.9,30.1,29.18,SW,220,7.8,8.3,37,0.00,,---,0.00,VWS V14.01,2013-05-29 08:16:00,
2013-05-29 01:21:00,55.9,30.1,29.18,SW,223,6.3,11.0,37,0.00,,---,0.00,VWS V14.01,2013-05-29 08:21:00,
2013-05-29 01:26:00,55.8,29.9,29.18,SSW,212,7.4,7.4,37,0.00,,---,0.00,VWS V14.01,2013-05-29 08:26:00,
2013-05-29 01:31:00,55.8,29.9,29.18,SW,229,9.2,9.6,37,0.00,,---,0.00,VWS V14.01,2013-05-29 08:31:00,
2013-05-29 01:36:00,55.9,30.1,29.18,SW,233,7.4,10.5,37,0.00,,---,0.00,VWS V14.01,2013-05-29 08:36:00,
2013-05-29 01:41:00,56.1,30.2,29.18,SW,218,6.9,8.7,37,0.00,,---,0.00,VWS V14.01,2013-05-29 08:41:00,
2013-05-29 01:46:00,56.1,30.2,29.18,SW,215,9.6,10.1,37,0.00,,---,0.00,VWS V14.01,2013-05-29 08:46:00,
2013-05-29 01:51:00,56.1,30.2,29.18,SSW,207,9.6,9.6,37,0.00,,---,0.00,VWS V14.01,2013-05-29 08:51:00,
2013-05-29 01:56:00,55.9,30.1,29.18,SSW,212,7.8,10.5,37,0.00,,---,0.00,VWS V14.01,2013-05-29 08:56:00,
2013-05-29 02:01:00,55.8,29.9,29.18,SW,223,10.5,10.5,37,0.00,,---,0.00,VWS V14.01,2013-05-29 09:01:00,
2013-05-29 02:06:00,55.6,29.7,29.18,SW,214,11.0,11.0,37,0.00,,---,0.00,VWS V14.01,2013-05-29 09:06:00,
2013-05-29 02:11:00,55.4,30.2,29.18,SSW,196,10.1,13.0,38,0.00,,---,0.00,VWS V14.01,2013-05-29 09:11:00,
2013-05-29 02:16:00,55.2,30.7,29.18,SSW,210,7.4,9.6,39,0.00,,---,0.00,VWS V14.01,2013-05-29 09:16:00,
2013-05-29 02:21:00,55.0,30.5,29.18,South,189,8.7,11.2,39,0.00,,---,0.00,VWS V14.01,2013-05-29 09:21:00,
2013-05-29 02:26:00,55.0,30.5,29.18,SW,215,8.3,12.1,39,0.00,,---,0.00,VWS V14.01,2013-05-29 09:26:00,
2013-05-29 02:31:00,55.0,30.5,29.18,SW,226,6.7,10.5,39,0.00,,---,0.00,VWS V14.01,2013-05-29 09:31:00,
2013-05-29 02:36:00,54.9,30.4,29.18,WSW,242,6.9,8.3,39,0.00,,---,0.00,VWS V14.01,2013-05-29 09:36:00,
2013-05-29 02:41:00,54.9,30.4,29.18,WSW,239,8.3,9.6,39,0.00,,---,0.00,VWS V14.01,2013-05-29 09:41:00,
2013-05-29 02:46:00,55.0,30.5,29.18,WSW,237,8.7,10.5,39,0.00,,---,0.00,VWS V14.01,2013-05-29 09:46:00,
2013-05-29 02:51:00,55.2,30.7,29.18,SW,216,8.7,10.1,39,0.00,,---,0.00,VWS V14.01,2013-05-29 09:51:00,
2013-05-29 02:56:00,55.4,30.2,29.18,SW,216,11.2,12.1,38,0.00,,---,0.00,VWS V14.01,2013-05-29 09:56:00,
2013-05-29 03:01:00,55.6,29.7,29.18,WSW,244,8.3,9.6,37,0.00,,---,0.00,VWS V14.01,2013-05-29 10:01:00,
2013-05-29 03:06:00,55.6,29.7,29.18,WSW,251,8.3,12.1,37,0.00,,---,0.00,VWS V14.01,2013-05-29 10:06:00,
2013-05-29 03:11:00,55.8,29.2,29.18,WSW,254,8.3,10.5,36,0.00,,---,0.00,VWS V14.01,2013-05-29 10:11:00,
2013-05-29 03:16:00,55.9,29.4,29.18,WSW,247,10.1,14.3,36,0.00,,---,0.00,VWS V14.01,2013-05-29 10:16:00,
2013-05-29 03:21:00,55.9,29.4,29.18,SW,226,8.7,11.2,36,0.00,,---,0.00,VWS V14.01,2013-05-29 10:21:00,
2013-05-29 03:26:00,56.1,29.5,29.18,WSW,253,7.8,10.1,36,0.00,,---,0.00,VWS V14.01,2013-05-29 10:26:00,
2013-05-29 03:31:00,55.9,29.4,29.18,WSW,252,6.9,8.7,36,0.00,,---,0.00,VWS V14.01,2013-05-29 10:31:00,
2013-05-29 03:36:00,55.9,29.4,29.18,WNW,283,8.7,9.2,36,0.00,,---,0.00,VWS V14.01,2013-05-29 10:36:00,
2013-05-29 03:41:00,55.9,29.4,29.18,WSW,250,6.7,8.7,36,0.00,,---,0.00,VWS V14.01,2013-05-29 10:41:00,
2013-05-29 03:46:00,55.9,30.1,29.18,WSW,256,8.3,9.2,37,0.00,,---,0.00,VWS V14.01,2013-05-29 10:46:00,
2013-05-29 03:51:00,55.9,30.1,29.18,SW,227,8.7,10.5,37,0.00,,---,0.00,VWS V14.01,2013-05-29 10:51:00,
2013-05-29 03:56:00,56.1,30.2,29.18,SW,231,7.4,7.4,37,0.00,,---,0.00,VWS V14.01,2013-05-29 10:56:00,
2013-05-29 04:01:00,56.1,30.2,29.18,SW,216,7.4,8.3,37,0.00,,---,0.00,VWS V14.01,2013-05-29 11:01:00,
2013-05-29 04:06:00,55.9,30.1,29.18,SSW,207,5.4,6.9,37,0.00,,---,0.00,VWS V14.01,2013-05-29 11:06:00,
2013-05-29 04:11:00,56.1,30.2,29.18,SW,228,9.2,9.2,37,0.00,,---,0.00,VWS V14.01,2013-05-29 11:11:00,
2013-05-29 04:17:00,56.1,30.2,29.18,SSW,212,10.1,10.1,37,0.00,,---,0.00,VWS V14.01,2013-05-29 11:17:00,
2013-05-29 04:22:00,56.1,30.2,29.18,SSW,205,11.6,11.6,37,0.00,,---,0.00,VWS V14.01,2013-05-29 11:22:00,
2013-05-29 04:27:00,55.9,30.1,29.18,SSW,202,11.0,12.1,37,0.00,,---,0.00,VWS V14.01,2013-05-29 11:27:00,
2013-05-29 04:32:00,56.1,29.5,29.18,SW,215,10.5,11.6,36,0.00,,---,0.00,VWS V14.01,2013-05-29 11:32:00,
2013-05-29 04:37:00,56.1,29.5,29.18,SW,232,9.2,15.2,36,0.00,,---,0.00,VWS V14.01,2013-05-29 11:37:00,
2013-05-29 04:42:00,56.1,29.5,29.18,SSW,212,10.1,11.2,36,0.00,,---,0.00,VWS V14.01,2013-05-29 11:42:00,
2013-05-29 04:47:00,56.3,29.0,29.18,South,184,12.1,12.1,35,0.00,,---,0.00,VWS V14.01,2013-05-29 11:47:00,
2013-05-29 04:52:00,56.3,29.0,29.18,SSW,208,5.8,9.6,35,0.00,,---,0.00,VWS V14.01,2013-05-29 11:52:00,
2013-05-29 04:57:00,56.3,29.0,29.18,WSW,256,9.2,9.6,35,0.00,,---,0.00,VWS V14.01,2013-05-29 11:57:00,
2013-05-29 05:02:00,56.3,29.0,29.18,SW,232,8.7,11.2,35,0.00,,---,0.00,VWS V14.01,2013-05-29 12:02:00,
2013-05-29 05:07:00,56.3,29.0,29.18,SW,220,6.9,8.3,35,0.00,,---,0.00,VWS V14.01,2013-05-29 12:07:00,
2013-05-29 05:12:00,56.5,29.2,29.18,WSW,244,11.0,12.1,35,0.00,,---,0.00,VWS V14.01,2013-05-29 12:12:00,
2013-05-29 05:17:00,56.7,29.3,29.18,SSW,196,8.3,10.1,35,0.00,,---,0.00,VWS V14.01,2013-05-29 12:17:00,
2013-05-29 05:22:00,56.7,29.3,29.18,SW,224,11.2,11.6,35,0.00,,---,0.00,VWS V14.01,2013-05-29 12:22:00,
2013-05-29 05:27:00,56.7,28.6,29.18,SW,236,9.2,10.1,34,0.00,,---,0.00,VWS V14.01,2013-05-29 12:27:00,
2013-05-29 05:32:00,56.7,29.3,29.18,SW,228,8.3,8.7,35,0.00,,---,0.00,VWS V14.01,2013-05-29 12:32:00,
2013-05-29 05:37:00,56.7,29.3,29.18,SW,227,6.3,9.6,35,0.00,,---,0.00,VWS V14.01,2013-05-29 12:37:00,
2013-05-29 05:42:00,56.7,29.3,29.18,SSW,199,7.4,7.4,35,0.00,,---,0.00,VWS V14.01,2013-05-29 12:42:00,
2013-05-29 05:47:00,56.5,29.2,29.18,SW,218,9.2,9.6,35,0.00,,---,0.00,VWS V14.01,2013-05-29 12:47:00,
2013-05-29 05:52:00,56.5,29.2,29.18,SW,214,11.0,11.2,35,0.00,,---,0.00,VWS V14.01,2013-05-29 12:52:00,
2013-05-29 05:57:00,56.5,29.2,29.18,SW,215,9.2,10.5,35,0.00,,---,0.00,VWS V14.01,2013-05-29 12:57:00,
2013-05-29 06:02:00,56.5,29.2,29.18,SW,227,10.5,11.0,35,0.00,,---,0.00,VWS V14.01,2013-05-29 13:02:00,
2013-05-29 06:07:00,56.5,29.2,29.18,SW,216,7.8,9.6,35,0.00,,---,0.00,VWS V14.01,2013-05-29 13:07:00,
2013-05-29 06:12:00,56.5,29.2,29.18,SW,233,7.4,8.3,35,0.00,,---,0.00,VWS V14.01,2013-05-29 13:12:00,
2013-05-29 06:17:00,56.7,29.3,29.18,SW,228,7.4,10.1,35,0.00,,---,0.00,VWS V14.01,2013-05-29 13:17:00,
2013-05-29 06:22:00,56.7,29.3,29.18,SW,221,9.6,9.6,35,0.00,,---,0.00,VWS V14.01,2013-05-29 13:22:00,
2013-05-29 06:27:00,56.8,29.5,29.18,SW,232,7.8,11.0,35,0.00,,---,0.00,VWS V14.01,2013-05-29 13:27:00,
2013-05-29 06:32:00,57.0,29.0,29.18,SW,235,8.3,8.3,34,0.00,,---,0.00,VWS V14.01,2013-05-29 13:32:00,
2013-05-29 06:37:00,57.2,29.1,29.18,SW,227,5.4,6.9,34,0.00,,---,0.00,VWS V14.01,2013-05-29 13:37:00,
2013-05-29 06:42:00,57.4,28.5,29.18,SW,218,9.6,10.1,33,0.00,,---,0.00,VWS V14.01,2013-05-29 13:42:00,
2013-05-29 06:47:00,57.4,28.5,29.18,SW,219,9.2,9.6,33,0.00,,---,0.00,VWS V14.01,2013-05-29 13:47:00,
2013-05-29 06:52:00,57.4,28.5,29.18,WSW,241,7.4,9.2,33,0.00,,---,0.00,VWS V14.01,2013-05-29 13:52:00,
2013-05-29 06:57:00,57.6,28.7,29.18,SW,231,8.3,8.7,33,0.00,,---,0.00,VWS V14.01,2013-05-29 13:57:00,
2013-05-29 07:02:00,57.6,29.4,29.18,SW,229,7.4,7.8,34,0.00,,---,0.00,VWS V14.01,2013-05-29 14:02:00,
2013-05-29 07:07:00,57.6,28.7,29.18,SW,217,7.8,7.8,33,0.00,,---,0.00,VWS V14.01,2013-05-29 14:07:00,
2013-05-29 07:12:00,57.6,28.7,29.18,SSW,209,7.4,7.4,33,0.00,,---,0.00,VWS V14.01,2013-05-29 14:12:00,
2013-05-29 07:17:00,57.6,28.7,29.18,SW,215,6.9,8.3,33,0.00,,---,0.00,VWS V14.01,2013-05-29 14:17:00,
2013-05-29 07:22:00,57.9,28.3,29.18,SW,231,7.8,8.7,32,0.00,,---,0.00,VWS V14.01,2013-05-29 14:22:00,
2013-05-29 07:27:00,58.3,27.0,29.18,WSW,237,10.5,10.5,30,0.00,,---,0.00,VWS V14.01,2013-05-29 14:27:00,
2013-05-29 07:32:00,58.6,27.3,29.18,SSW,195,9.2,12.1,30,0.00,,---,0.00,VWS V14.01,2013-05-29 14:32:00,
2013-05-29 07:37:00,59.0,26.8,29.18,SW,217,11.0,11.0,29,0.00,,---,0.00,VWS V14.01,2013-05-29 14:37:00,
2013-05-29 07:42:00,59.4,27.1,29.18,SW,231,7.8,11.2,29,0.00,,---,0.00,VWS V14.01,2013-05-29 14:42:00,
2013-05-29 07:47:00,60.3,26.2,29.18,SW,227,7.4,11.0,27,0.00,,---,0.00,VWS V14.01,2013-05-29 14:47:00,
2013-05-29 07:52:00,60.8,26.6,29.18,WSW,237,11.6,12.5,27,0.00,,---,0.00,VWS V14.01,2013-05-29 14:52:00,
2013-05-29 07:57:00,60.8,26.6,29.18,SSW,206,6.3,10.1,27,0.00,,---,0.00,VWS V14.01,2013-05-29 14:57:00,
2013-05-29 08:02:00,62.4,26.2,29.18,WSW,237,8.7,12.1,25,0.00,,---,0.00,VWS V14.01,2013-05-29 15:02:00,
2013-05-29 08:07:00,61.9,25.7,29.18,West,266,9.2,10.5,25,0.00,,---,0.00,VWS V14.01,2013-05-29 15:07:00,
2013-05-29 08:12:00,62.1,25.9,29.18,WSW,251,11.0,11.2,25,0.00,,---,0.00,VWS V14.01,2013-05-29 15:12:00,
2013-05-29 08:17:00,61.7,25.5,29.18,WSW,238,10.1,10.1,25,0.00,,---,0.00,VWS V14.01,2013-05-29 15:17:00,
2013-05-29 08:22:00,61.5,25.4,29.18,SW,226,13.0,13.4,25,0.00,,---,0.00,VWS V14.01,2013-05-29 15:22:00,
2013-05-29 08:27:00,60.8,25.7,29.18,WSW,238,9.6,12.1,26,0.00,,---,0.00,VWS V14.01,2013-05-29 15:27:00,
2013-05-29 08:32:00,60.8,25.7,29.18,WSW,237,7.8,8.3,26,0.00,,---,0.00,VWS V14.01,2013-05-29 15:32:00,
2013-05-29 08:37:00,61.0,25.9,29.18,SSW,200,11.0,11.0,26,0.00,,---,0.00,VWS V14.01,2013-05-29 15:37:00,
2013-05-29 08:42:00,61.2,26.0,29.18,WSW,253,7.4,7.8,26,0.00,,---,0.00,VWS V14.01,2013-05-29 15:42:00,
2013-05-29 08:47:00,62.1,25.9,29.18,WSW,245,7.4,11.2,25,0.00,,---,0.00,VWS V14.01,2013-05-29 15:47:00,
2013-05-29 08:52:00,62.6,26.3,29.18,SW,227,11.6,12.5,25,0.00,,---,0.00,VWS V14.01,2013-05-29 15:52:00,
2013-05-29 08:57:00,62.2,26.0,29.18,SW,224,11.6,13.0,25,0.00,,---,0.00,VWS V14.01,2013-05-29 15:57:00,
2013-05-29 09:02:00,62.6,26.3,29.18,WSW,254,11.6,15.2,25,0.00,,---,0.00,VWS V14.01,2013-05-29 16:02:00,
2013-05-29 09:07:00,63.0,26.6,29.18,WSW,257,7.8,12.1,25,0.00,,---,0.00,VWS V14.01,2013-05-29 16:07:00,
2013-05-29 09:12:00,63.3,26.9,29.18,WSW,247,10.5,13.0,25,0.00,,---,0.00,VWS V14.01,2013-05-29 16:12:00,
2013-05-29 09:17:00,63.7,27.2,29.18,West,274,11.0,13.9,25,0.00,,---,0.00,VWS V14.01,2013-05-29 16:17:00,
2013-05-29 09:22:00,63.5,27.1,29.21,WSW,252,9.6,13.9,25,0.00,,---,0.00,VWS V14.01,2013-05-29 16:22:00,
2013-05-29 09:27:00,63.1,26.8,29.21,WSW,237,8.3,11.2,25,0.00,,---,0.00,VWS V14.01,2013-05-29 16:27:00,
2013-05-29 09:32:00,63.5,27.1,29.21,WSW,245,13.0,14.3,25,0.00,,---,0.00,VWS V14.01,2013-05-29 16:32:00,
2013-05-29 09:37:00,63.3,26.9,29.21,SW,232,11.0,13.0,25,0.00,,---,0.00,VWS V14.01,2013-05-29 16:37:00,
2013-05-29 09:42:00,63.3,26.9,29.21,WSW,251,12.1,13.0,25,0.00,,---,0.00,VWS V14.01,2013-05-29 16:42:00,
2013-05-29 09:47:00,63.1,26.8,29.21,WSW,242,6.7,10.5,25,0.00,,---,0.00,VWS V14.01,2013-05-29 16:47:00,
2013-05-29 09:52:00,63.5,27.1,29.18,WSW,241,11.2,12.5,25,0.00,,---,0.00,VWS V14.01,2013-05-29 16:52:00,
2013-05-29 09:57:00,63.3,26.9,29.18,WSW,257,8.7,12.5,25,0.00,,---,0.00,VWS V14.01,2013-05-29 16:57:00,
2013-05-29 10:02:00,63.0,27.6,29.18,SW,225,13.0,13.9,26,0.00,,---,0.00,VWS V14.01,2013-05-29 17:02:00,
2013-05-29 10:07:00,63.5,28.0,29.18,WSW,252,11.2,11.2,26,0.00,,---,0.00,VWS V14.01,2013-05-29 17:07:00,
2013-05-29 10:12:00,63.7,27.2,29.18,West,263,9.6,13.4,25,0.00,,---,0.00,VWS V14.01,2013-05-29 17:12:00,
2013-05-29 10:17:00,63.9,27.4,29.18,West,277,7.8,10.1,25,0.00,,---,0.00,VWS V14.01,2013-05-29 17:17:00,
2013-05-29 10:22:00,64.2,27.7,29.18,West,275,7.4,11.2,25,0.00,,---,0.00,VWS V14.01,2013-05-29 17:22:00,
2013-05-29 10:27:00,64.2,27.7,29.18,West,262,9.6,11.6,25,0.00,,---,0.00,VWS V14.01,2013-05-29 17:27:00,
2013-05-29 10:32:00,64.0,27.5,29.18,West,265,8.7,10.5,25,0.00,,---,0.00,VWS V14.01,2013-05-29 17:32:00,
2013-05-29 10:37:00,64.0,27.5,29.21,WSW,242,10.1,10.1,25,0.00,,---,0.00,VWS V14.01,2013-05-29 17:37:00,
2013-05-29 10:42:00,64.2,27.7,29.21,West,269,6.9,9.2,25,0.00,,---,0.00,VWS V14.01,2013-05-29 17:42:00,
2013-05-29 10:47:00,64.9,28.3,29.21,West,271,10.5,11.0,25,0.00,,---,0.00,VWS V14.01,2013-05-29 17:47:00,
2013-05-29 10:52:00,66.4,28.5,29.18,WSW,246,11.2,14.8,24,0.00,,---,0.00,VWS V14.01,2013-05-29 17:52:00,
2013-05-29 10:57:00,66.2,28.4,29.18,West,272,7.8,11.2,24,0.00,,---,0.00,VWS V14.01,2013-05-29 17:57:00,
2013-05-29 11:02:00,64.6,27.0,29.18,SSW,206,11.0,11.6,24,0.00,,---,0.00,VWS V14.01,2013-05-29 18:02:00,
2013-05-29 11:07:00,64.2,27.7,29.18,WSW,240,10.5,13.4,25,0.00,,---,0.00,VWS V14.01,2013-05-29 18:07:00,
2013-05-29 11:12:00,66.6,28.7,29.18,WSW,246,13.4,14.3,24,0.00,,---,0.00,VWS V14.01,2013-05-29 18:12:00,
2013-05-29 11:17:00,66.0,28.2,29.18,SW,227,12.5,12.5,24,0.00,,---,0.00,VWS V14.01,2013-05-29 18:17:00,
2013-05-29 11:22:00,68.0,28.9,29.18,West,262,13.9,13.9,23,0.00,,---,0.00,VWS V14.01,2013-05-29 18:22:00,
2013-05-29 11:27:00,68.7,29.5,29.18,West,279,14.8,16.8,23,0.00,,---,0.00,VWS V14.01,2013-05-29 18:27:00,
2013-05-29 11:32:00,66.7,27.8,29.18,SW,227,12.5,13.0,23,0.00,,---,0.00,VWS V14.01,2013-05-29 18:32:00,
2013-05-29 11:37:00,67.6,28.5,29.18,South,179,9.6,13.4,23,0.00,,---,0.00,VWS V14.01,2013-05-29 18:37:00,
2013-05-29 11:42:00,67.5,28.4,29.18,SW,215,9.6,12.5,23,0.00,,---,0.00,VWS V14.01,2013-05-29 18:42:00,
2013-05-29 11:47:00,69.3,28.8,29.18,SW,227,15.2,16.8,22,0.00,,---,0.00,VWS V14.01,2013-05-29 18:47:00,
2013-05-29 11:52:00,70.0,29.4,29.18,WSW,239,13.0,17.2,22,0.00,,---,0.00,VWS V14.01,2013-05-29 18:52:00,
2013-05-29 11:57:00,71.6,29.6,29.18,WSW,248,14.8,17.2,21,0.00,,---,0.00,VWS V14.01,2013-05-29 18:57:00,
2013-05-29 12:02:00,69.3,28.8,29.18,WSW,253,14.8,14.8,22,0.00,,---,0.00,VWS V14.01,2013-05-29 19:02:00,
2013-05-29 12:07:00,70.7,28.9,29.18,WSW,247,13.0,13.9,21,0.00,,---,0.00,VWS V14.01,2013-05-29 19:07:00,
2013-05-29 12:12:00,69.1,28.7,29.18,SW,233,11.6,17.7,22,0.00,,---,0.00,VWS V14.01,2013-05-29 19:12:00,
2013-05-29 12:17:00,70.9,29.0,29.18,WSW,245,10.1,14.3,21,0.00,,---,0.00,VWS V14.01,2013-05-29 19:17:00,
2013-05-29 12:22:00,71.8,27.3,29.18,West,259,15.2,15.2,19,0.00,,---,0.00,VWS V14.01,2013-05-29 19:22:00,
2013-05-29 12:27:00,70.7,26.5,29.18,WSW,245,15.9,18.1,19,0.00,,---,0.00,VWS V14.01,2013-05-29 19:27:00,
2013-05-29 12:32:00,70.7,26.5,29.18,West,278,16.3,16.3,19,0.00,,---,0.00,VWS V14.01,2013-05-29 19:32:00,
2013-05-29 12:37:00,72.7,26.8,29.18,West,275,10.5,14.3,18,0.00,,---,0.00,VWS V14.01,2013-05-29 19:37:00,
2013-05-29 12:42:00,72.5,26.6,29.18,WSW,248,10.5,15.2,18,0.00,,---,0.00,VWS V14.01,2013-05-29 19:42:00,
2013-05-29 12:47:00,72.1,27.6,29.18,WSW,240,11.6,12.5,19,0.00,,---,0.00,VWS V14.01,2013-05-29 19:47:00,
2013-05-29 12:52:00,73.2,27.2,29.18,West,272,9.2,15.2,18,0.00,,---,0.00,VWS V14.01,2013-05-29 19:52:00,
2013-05-29 12:57:00,73.0,27.1,29.18,SW,225,18.1,18.1,18,0.00,,---,0.00,VWS V14.01,2013-05-29 19:57:00,
2013-05-29 13:02:00,72.0,27.5,29.18,West,263,18.1,18.1,19,0.00,,---,0.00,VWS V14.01,2013-05-29 20:02:00,
2013-05-29 13:07:00,72.7,23.9,29.18,West,270,10.5,18.6,16,0.00,,---,0.00,VWS V14.01,2013-05-29 20:07:00,
2013-05-29 13:12:00,72.7,23.9,29.18,WSW,245,16.3,16.3,16,0.00,,---,0.00,VWS V14.01,2013-05-29 20:12:00,
2013-05-29 13:17:00,73.0,24.2,29.18,WSW,251,13.4,15.2,16,0.00,,---,0.00,VWS V14.01,2013-05-29 20:17:00,
2013-05-29 13:22:00,72.7,23.9,29.15,SW,228,13.4,14.3,16,0.00,,---,0.00,VWS V14.01,2013-05-29 20:22:00,
2013-05-29 13:27:00,71.8,23.2,29.15,WSW,240,11.6,15.4,16,0.00,,---,0.00,VWS V14.01,2013-05-29 20:27:00,
2013-05-29 13:32:00,73.2,24.4,29.15,WSW,248,11.0,15.9,16,0.00,,---,0.00,VWS V14.01,2013-05-29 20:32:00,
2013-05-29 13:37:00,71.6,23.1,29.15,WSW,245,12.5,12.5,16,0.00,,---,0.00,VWS V14.01,2013-05-29 20:37:00,
2013-05-29 13:42:00,71.4,22.9,29.15,SW,223,15.2,16.3,16,0.00,,---,0.00,VWS V14.01,2013-05-29 20:42:00,
2013-05-29 13:47:00,71.4,22.9,29.15,WSW,238,10.1,15.9,16,0.00,,---,0.00,VWS V14.01,2013-05-29 20:47:00,
2013-05-29 13:52:00,73.0,24.2,29.15,West,263,15.2,15.2,16,0.00,,---,0.00,VWS V14.01,2013-05-29 20:52:00,
2013-05-29 13:58:00,73.8,24.8,29.15,WSW,255,8.7,12.1,16,0.00,,---,0.00,VWS V14.01,2013-05-29 20:58:00,
2013-05-29 14:03:00,74.5,23.8,29.15,WSW,251,5.4,15.2,15,0.00,,---,0.00,VWS V14.01,2013-05-29 21:03:00,
2013-05-29 14:08:00,74.3,25.2,29.15,WSW,245,13.0,13.4,16,0.00,,---,0.00,VWS V14.01,2013-05-29 21:08:00,
2013-05-29 14:13:00,73.8,24.8,29.15,WSW,256,9.6,13.4,16,0.00,,---,0.00,VWS V14.01,2013-05-29 21:13:00,
2013-05-29 14:18:00,73.9,25.0,29.15,SW,232,13.9,13.9,16,0.00,,---,0.00,VWS V14.01,2013-05-29 21:18:00,
2013-05-29 14:23:00,73.0,24.2,29.15,West,267,6.9,13.0,16,0.00,,---,0.00,VWS V14.01,2013-05-29 21:23:00,
2013-05-29 14:28:00,74.1,25.1,29.15,West,276,9.2,12.5,16,0.00,,---,0.00,VWS V14.01,2013-05-29 21:28:00,
2013-05-29 14:33:00,73.8,24.8,29.15,NW,324,13.4,13.9,16,0.00,,---,0.00,VWS V14.01,2013-05-29 21:33:00,
2013-05-29 14:38:00,74.1,25.1,29.15,West,275,13.0,13.4,16,0.00,,---,0.00,VWS V14.01,2013-05-29 21:38:00,
2013-05-29 14:43:00,74.5,23.8,29.15,West,259,7.8,14.3,15,0.00,,---,0.00,VWS V14.01,2013-05-29 21:43:00,
2013-05-29 14:48:00,74.3,25.2,29.15,West,267,9.2,14.3,16,0.00,,---,0.00,VWS V14.01,2013-05-29 21:48:00,
2013-05-29 14:53:00,74.5,23.8,29.15,WNW,284,11.6,11.6,15,0.00,,---,0.00,VWS V14.01,2013-05-29 21:53:00,
2013-05-29 14:58:00,74.3,23.7,29.15,West,259,11.2,15.2,15,0.00,,---,0.00,VWS V14.01,2013-05-29 21:58:00,
2013-05-29 15:03:00,74.1,25.1,29.15,WNW,301,11.2,12.1,16,0.00,,---,0.00,VWS V14.01,2013-05-29 22:03:00,
2013-05-29 15:08:00,74.1,25.1,29.15,WSW,250,11.0,17.7,16,0.00,,---,0.00,VWS V14.01,2013-05-29 22:08:00,
2013-05-29 15:13:00,74.1,25.1,29.15,WNW,283,6.9,13.4,16,0.00,,---,0.00,VWS V14.01,2013-05-29 22:13:00,
2013-05-29 15:18:00,74.5,23.8,29.15,WSW,246,12.5,14.3,15,0.00,,---,0.00,VWS V14.01,2013-05-29 22:18:00,
2013-05-29 15:23:00,74.3,23.7,29.15,WSW,242,15.9,15.9,15,0.00,,---,0.00,VWS V14.01,2013-05-29 22:23:00,
2013-05-29 15:28:00,73.9,20.0,29.15,West,270,9.2,20.1,13,0.00,,---,0.00,VWS V14.01,2013-05-29 22:28:00,
2013-05-29 15:33:00,74.1,20.2,29.15,West,263,15.2,15.2,13,0.00,,---,0.00,VWS V14.01,2013-05-29 22:33:00,
2013-05-29 15:38:00,74.5,20.5,29.15,WSW,251,10.1,13.4,13,0.00,,---,0.00,VWS V14.01,2013-05-29 22:38:00,
2013-05-29 15:43:00,74.7,20.6,29.15,WSW,258,10.5,11.6,13,0.00,,---,0.00,VWS V14.01,2013-05-29 22:43:00,
2013-05-29 15:48:00,74.3,20.3,29.15,West,272,12.1,12.1,13,0.00,,---,0.00,VWS V14.01,2013-05-29 22:48:00,
2013-05-29 15:53:00,74.3,20.3,29.15,West,267,11.6,13.0,13,0.00,,---,0.00,VWS V14.01,2013-05-29 22:53:00,
2013-05-29 15:58:00,74.1,20.2,29.15,West,274,13.4,15.2,13,0.00,,---,0.00,VWS V14.01,2013-05-29 22:58:00,
2013-05-29 16:03:00,73.8,19.9,29.15,West,263,9.2,15.2,13,0.00,,---,0.00,VWS V14.01,2013-05-29 23:03:00,
2013-05-29 16:08:00,73.8,19.9,29.15,WSW,255,10.5,15.9,13,0.00,,---,0.00,VWS V14.01,2013-05-29 23:08:00,
2013-05-29 16:13:00,73.9,20.0,29.15,West,272,12.5,15.4,13,0.00,,---,0.00,VWS V14.01,2013-05-29 23:13:00,
2013-05-29 16:18:00,73.8,19.9,29.12,WNW,288,11.0,14.3,13,0.00,,---,0.00,VWS V14.01,2013-05-29 23:18:00,
2013-05-29 16:23:00,73.6,19.8,29.12,West,264,9.6,15.4,13,0.00,,---,0.00,VWS V14.01,2013-05-29 23:23:00,
2013-05-29 16:28:00,73.4,19.6,29.12,WNW,284,12.1,15.4,13,0.00,,---,0.00,VWS V14.01,2013-05-29 23:28:00,
2013-05-29 16:33:00,72.9,19.2,29.12,WNW,292,13.9,13.9,13,0.00,,---,0.00,VWS V14.01,2013-05-29 23:33:00,
2013-05-29 16:38:00,73.0,19.3,29.12,West,281,11.0,13.0,13,0.00,,---,0.00,VWS V14.01,2013-05-29 23:38:00,
2013-05-29 16:43:00,73.0,19.3,29.12,WNW,297,13.4,14.8,13,0.00,,---,0.00,VWS V14.01,2013-05-29 23:43:00,
2013-05-29 16:48:00,72.9,19.2,29.15,West,266,10.5,15.2,13,0.00,,---,0.00,VWS V14.01,2013-05-29 23:48:00,
2013-05-29 16:53:00,72.7,19.0,29.15,West,277,10.5,10.5,13,0.00,,---,0.00,VWS V14.01,2013-05-29 23:53:00,
2013-05-29 16:58:00,72.9,19.2,29.15,West,269,10.5,13.4,13,0.00,,---,0.00,VWS V14.01,2013-05-29 23:58:00,
2013-05-29 17:03:00,72.9,19.2,29.15,WNW,284,13.9,13.9,13,0.00,,---,0.00,VWS V14.01,2013-05-30 00:03:00,
2013-05-29 17:08:00,72.3,20.5,29.15,WSW,246,11.0,14.8,14,0.00,,---,0.00,VWS V14.01,2013-05-30 00:08:00,
2013-05-29 17:13:00,72.1,20.4,29.15,West,278,11.2,15.2,14,0.00,,---,0.00,VWS V14.01,2013-05-30 00:13:00,
2013-05-29 17:18:00,71.6,19.9,29.12,WSW,254,13.4,15.2,14,0.00,,---,0.00,VWS V14.01,2013-05-30 00:18:00,
2013-05-29 17:23:00,72.0,20.2,29.12,West,272,16.8,16.8,14,0.00,,---,0.00,VWS V14.01,2013-05-30 00:23:00,
2013-05-29 17:28:00,71.2,19.6,29.12,West,263,7.4,10.5,14,0.00,,---,0.00,VWS V14.01,2013-05-30 00:28:00,
2013-05-29 17:33:00,71.4,19.8,29.12,West,271,13.9,13.9,14,0.00,,---,0.00,VWS V14.01,2013-05-30 00:33:00,
2013-05-29 17:38:00,71.4,19.8,29.12,WSW,238,7.8,14.3,14,0.00,,---,0.00,VWS V14.01,2013-05-30 00:38:00,
2013-05-29 17:43:00,71.4,19.8,29.12,West,259,7.4,12.5,14,0.00,,---,0.00,VWS V14.01,2013-05-30 00:43:00,
2013-05-29 17:48:00,71.1,19.5,29.12,WSW,248,14.3,18.6,14,0.00,,---,0.00,VWS V14.01,2013-05-30 00:48:00,
2013-05-29 17:53:00,70.9,19.4,29.12,WSW,253,12.1,13.9,14,0.00,,---,0.00,VWS V14.01,2013-05-30 00:53:00,
2013-05-29 17:58:00,70.5,19.1,29.12,WNW,288,13.4,13.4,14,0.00,,---,0.00,VWS V14.01,2013-05-30 00:58:00,
2013-05-29 18:03:00,70.3,18.9,29.12,West,260,11.0,13.4,14,0.00,,---,0.00,VWS V14.01,2013-05-30 01:03:00,
2013-05-29 18:08:00,70.0,18.6,29.12,WSW,237,12.5,14.8,14,0.00,,---,0.00,VWS V14.01,2013-05-30 01:08:00,
2013-05-29 18:13:00,69.8,18.5,29.12,WSW,248,7.8,12.1,14,0.00,,---,0.00,VWS V14.01,2013-05-30 01:13:00,
2013-05-29 18:18:00,70.2,18.8,29.15,WSW,247,12.1,14.3,14,0.00,,---,0.00,VWS V14.01,2013-05-30 01:18:00,
2013-05-29 18:23:00,68.7,19.2,29.15,SSW,199,14.3,14.3,15,0.00,,---,0.00,VWS V14.01,2013-05-30 01:23:00,
2013-05-29 18:28:00,67.3,21.0,29.15,SSW,199,12.5,14.3,17,0.00,,---,0.00,VWS V14.01,2013-05-30 01:28:00,
2013-05-29 18:33:00,66.4,20.3,29.12,SSW,205,12.1,13.4,17,0.00,,---,0.00,VWS V14.01,2013-05-30 01:33:00,
2013-05-29 18:38:00,66.4,20.3,29.12,South,184,10.5,14.3,17,0.00,,---,0.00,VWS V14.01,2013-05-30 01:38:00,
2013-05-29 18:43:00,65.3,19.4,29.12,SW,231,15.2,15.2,17,0.00,,---,0.00,VWS V14.01,2013-05-30 01:43:00,
2013-05-29 18:48:00,66.0,20.0,29.15,SW,217,11.2,14.3,17,0.00,,---,0.00,VWS V14.01,2013-05-30 01:48:00,
2013-05-29 18:53:00,64.8,20.3,29.15,SSW,210,14.3,15.4,18,0.00,,---,0.00,VWS V14.01,2013-05-30 01:53:00,
2013-05-29 18:58:00,64.8,20.3,29.15,SSW,213,13.4,14.8,18,0.00,,---,0.00,VWS V14.01,2013-05-30 01:58:00,
2013-05-29 19:03:00,65.1,20.6,29.12,SW,221,9.6,12.5,18,0.00,,---,0.00,VWS V14.01,2013-05-30 02:03:00,
2013-05-29 19:08:00,65.1,20.6,29.12,SW,223,13.9,16.3,18,0.00,,---,0.00,VWS V14.01,2013-05-30 02:08:00,
2013-05-29 19:13:00,64.4,20.0,29.12,SW,215,14.3,16.8,18,0.00,,---,0.00,VWS V14.01,2013-05-30 02:13:00,
2013-05-29 19:18:00,64.4,20.0,29.12,SW,218,11.6,15.9,18,0.00,,---,0.00,VWS V14.01,2013-05-30 02:18:00,
2013-05-29 19:23:00,64.6,20.1,29.12,South,188,12.5,12.5,18,0.00,,---,0.00,VWS V14.01,2013-05-30 02:23:00,
2013-05-29 19:28:00,64.6,20.1,29.12,SSW,199,9.6,10.5,18,0.00,,---,0.00,VWS V14.01,2013-05-30 02:28:00,
2013-05-29 19:33:00,64.6,20.1,29.12,SW,234,11.0,11.6,18,0.00,,---,0.00,VWS V14.01,2013-05-30 02:33:00,
2013-05-29 19:38:00,64.4,20.0,29.12,SSW,208,7.8,9.6,18,0.00,,---,0.00,VWS V14.01,2013-05-30 02:38:00,
2013-05-29 19:43:00,64.0,19.7,29.12,SSW,198,9.6,12.5,18,0.00,,---,0.00,VWS V14.01,2013-05-30 02:43:00,
2013-05-29 19:48:00,63.5,19.3,29.15,SW,224,12.1,14.3,18,0.00,,---,0.00,VWS V14.01,2013-05-30 02:48:00,
2013-05-29 19:53:00,63.0,18.8,29.15,SSW,194,9.6,11.2,18,0.00,,---,0.00,VWS V14.01,2013-05-30 02:53:00,
2013-05-29 19:58:00,62.8,18.7,29.15,SW,216,10.1,10.5,18,0.00,,---,0.00,VWS V14.01,2013-05-30 02:58:00,
2013-05-29 20:03:00,62.1,18.1,29.15,SSW,192,5.8,11.0,18,0.00,,---,0.00,VWS V14.01,2013-05-30 03:03:00,
2013-05-29 20:08:00,61.5,18.9,29.15,South,189,8.7,11.0,19,0.00,,---,0.00,VWS V14.01,2013-05-30 03:08:00,
2013-05-29 20:13:00,60.8,18.3,29.15,SSW,207,10.1,12.1,19,0.00,,---,0.00,VWS V14.01,2013-05-30 03:13:00,
2013-05-29 20:18:00,60.1,20.0,29.15,South,190,10.1,13.4,21,0.00,,---,0.00,VWS V14.01,2013-05-30 03:18:00,
2013-05-29 20:23:00,59.7,22.9,29.15,SSW,212,13.4,13.9,24,0.00,,---,0.00,VWS V14.01,2013-05-30 03:23:00,
2013-05-29 20:28:00,59.5,22.7,29.15,SW,221,8.7,11.2,24,0.00,,---,0.00,VWS V14.01,2013-05-30 03:28:00,
2013-05-29 20:33:00,59.4,22.6,29.15,SW,226,10.1,10.5,24,0.00,,---,0.00,VWS V14.01,2013-05-30 03:33:00,
2013-05-29 20:38:00,59.2,23.4,29.15,SW,222,8.3,11.0,25,0.00,,---,0.00,VWS V14.01,2013-05-30 03:38:00,
2013-05-29 20:43:00,59.2,23.4,29.15,SSW,203,7.4,8.7,25,0.00,,---,0.00,VWS V14.01,2013-05-30 03:43:00,
2013-05-29 20:48:00,58.8,23.1,29.15,SSW,209,6.9,10.1,25,0.00,,---,0.00,VWS V14.01,2013-05-30 03:48:00,
2013-05-29 20:53:00,58.6,22.9,29.15,SSW,207,10.1,11.0,25,0.00,,---,0.00,VWS V14.01,2013-05-30 03:53:00,
2013-05-29 20:58:00,58.5,23.7,29.15,SSW,212,6.3,9.2,26,0.00,,---,0.00,VWS V14.01,2013-05-30 03:58:00,
2013-05-29 21:01:00,58.5,23.7,29.15,SSW,203,4.5,6.7,26,0.00,,---,0.00,VWS V14.01,2013-05-30 04:01:00,
2013-05-29 21:03:00,58.5,23.7,29.15,SSW,195,4.9,7.4,26,0.00,,---,0.00,VWS V14.01,2013-05-30 04:03:00,
2013-05-29 21:04:00,58.5,23.7,29.15,SSW,193,5.4,6.3,26,0.00,,---,0.00,VWS V14.01,2013-05-30 04:04:00,
2013-05-29 21:05:00,58.5,23.7,29.15,SSW,203,6.3,6.9,26,0.00,,---,0.00,VWS V14.01,2013-05-30 04:05:00,
2013-05-29 21:10:00,58.5,23.7,29.15,SW,229,6.7,9.6,26,0.00,,---,0.00,VWS V14.01,2013-05-30 04:10:00,
2013-05-29 21:15:00,58.5,23.7,29.15,SW,218,9.6,11.0,26,0.00,,---,0.00,VWS V14.01,2013-05-30 04:15:00,
2013-05-29 21:20:00,58.3,23.6,29.15,SW,220,8.3,9.2,26,0.00,,---,0.00,VWS V14.01,2013-05-30 04:20:00,
2013-05-29 21:23:00,58.1,23.4,29.15,SW,227,7.4,9.6,26,0.00,,---,0.00,VWS V14.01,2013-05-30 04:23:00,
2013-05-29 21:28:00,58.1,24.3,29.15,SSW,209,11.0,11.6,27,0.00,,---,0.00,VWS V14.01,2013-05-30 04:28:00,
2013-05-29 21:33:00,57.9,25.0,29.18,SSW,209,6.7,8.7,28,0.00,,---,0.00,VWS V14.01,2013-05-30 04:33:00,
2013-05-29 21:38:00,57.6,24.7,29.18,SW,221,10.1,11.0,28,0.00,,---,0.00,VWS V14.01,2013-05-30 04:38:00,
2013-05-29 21:43:00,57.4,25.4,29.18,SW,215,7.8,10.1,29,0.00,,---,0.00,VWS V14.01,2013-05-30 04:43:00,
2013-05-29 21:48:00,57.2,25.2,29.18,SW,228,7.4,8.3,29,0.00,,---,0.00,VWS V14.01,2013-05-30 04:48:00,
2013-05-29 21:53:00,57.0,25.9,29.18,SSW,209,7.8,8.7,30,0.00,,---,0.00,VWS V14.01,2013-05-30 04:53:00,
2013-05-29 21:58:00,56.8,25.8,29.18,South,185,11.0,11.6,30,0.00,,---,0.00,VWS V14.01,2013-05-30 04:58:00,
2013-05-29 22:03:00,56.7,26.4,29.18,SSW,202,8.7,10.1,31,0.00,,---,0.00,VWS V14.01,2013-05-30 05:03:00,
2013-05-29 22:08:00,56.7,26.4,29.18,SW,222,9.2,10.1,31,0.00,,---,0.00,VWS V14.01,2013-05-30 05:08:00,
2013-05-29 22:13:00,56.5,26.2,29.18,SSW,208,5.8,7.4,31,0.00,,---,0.00,VWS V14.01,2013-05-30 05:13:00,
2013-05-29 22:18:00,56.3,26.8,29.18,SSW,207,4.9,7.8,32,0.00,,---,0.00,VWS V14.01,2013-05-30 05:18:00,
2013-05-29 22:23:00,56.1,27.4,29.18,SW,222,8.7,11.0,33,0.00,,---,0.00,VWS V14.01,2013-05-30 05:23:00,
2013-05-29 22:28:00,55.9,28.0,29.18,South,180,6.9,8.7,34,0.00,,---,0.00,VWS V14.01,2013-05-30 05:28:00,
2013-05-29 22:33:00,55.9,28.0,29.18,SW,224,8.7,10.5,34,0.00,,---,0.00,VWS V14.01,2013-05-30 05:33:00,
2013-05-29 22:38:00,55.8,27.8,29.18,SW,224,7.8,10.5,34,0.00,,---,0.00,VWS V14.01,2013-05-30 05:38:00,
2013-05-29 22:43:00,55.6,28.4,29.18,SW,225,8.7,9.6,35,0.00,,---,0.00,VWS V14.01,2013-05-30 05:43:00,
2013-05-29 22:48:00,55.4,28.2,29.21,SW,227,8.3,10.1,35,0.00,,---,0.00,VWS V14.01,2013-05-30 05:48:00,
2013-05-29 22:53:00,55.2,28.1,29.21,SSW,208,5.4,6.9,35,0.00,,---,0.00,VWS V14.01,2013-05-30 05:53:00,
2013-05-29 22:58:00,55.0,27.9,29.21,SW,223,7.4,7.4,35,0.00,,---,0.00,VWS V14.01,2013-05-30 05:58:00,
2013-05-29 23:03:00,54.9,27.8,29.18,SW,221,5.8,7.8,35,0.00,,---,0.00,VWS V14.01,2013-05-30 06:03:00,
2013-05-29 23:08:00,54.9,27.8,29.18,SW,219,6.9,8.7,35,0.00,,---,0.00,VWS V14.01,2013-05-30 06:08:00,
2013-05-29 23:13:00,54.9,28.4,29.18,SSW,209,6.9,7.8,36,0.00,,---,0.00,VWS V14.01,2013-05-30 06:13:00,
2013-05-29 23:18:00,54.7,28.3,29.21,SSW,205,6.7,7.8,36,0.00,,---,0.00,VWS V14.01,2013-05-30 06:18:00,
2013-05-29 23:23:00,54.9,28.4,29.21,SW,224,6.3,8.7,36,0.00,,---,0.00,VWS V14.01,2013-05-30 06:23:00,
2013-05-29 23:28:00,54.7,28.3,29.21,SSW,200,8.3,10.1,36,0.00,,---,0.00,VWS V14.01,2013-05-30 06:28:00,
2013-05-29 23:33:00,54.5,28.1,29.18,SW,231,8.7,10.1,36,0.00,,---,0.00,VWS V14.01,2013-05-30 06:33:00,
2013-05-29 23:38:00,54.5,28.1,29.18,SW,225,9.6,9.6,36,0.00,,---,0.00,VWS V14.01,2013-05-30 06:38:00,
2013-05-29 23:43:00,54.3,28.6,29.18,SSW,202,8.3,9.2,37,0.00,,---,0.00,VWS V14.01,2013-05-30 06:43:00,
2013-05-29 23:48:00,54.3,28.6,29.18,WSW,243,8.7,8.7,37,0.00,,---,0.00,VWS V14.01,2013-05-30 06:48:00,
2013-05-29 23:53:00,54.0,28.3,29.18,SW,232,7.8,8.7,37,0.00,,---,0.00,VWS V14.01,2013-05-30 06:53:00,
2013-05-29 23:58:00,53.6,28.0,29.18,SW,234,4.9,6.7,37,0.00,,---,0.00,VWS V14.01,2013-05-30 06:58:00,